Location: Unspecified
(33.9360°N, 83.4200°W)
Time: 07:04:55
(UTC-04:00)

Daily predictions for brighter satellites

Satellite Brightness Start Highest point End
(mag) Time Altitude Azimuth Time Altitude Azimuth Time Altitude Azimuth
Milstar 3 Cent rocket 3.3 19:39:10 10° SW 19:45:18 33° S 19:49:39 10° ESE
Cosmos 1656 Rocket 4.0 19:42:09 10° N 19:47:32 45° ENE 19:52:49 10° SE
METEOR-M 4.1 19:43:42 10° SSE 19:49:02 78° ENE 19:54:24 10° N
FENGYUN 3A 4.0 19:44:59 10° SE 19:50:01 44° ENE 19:55:06 10° N
USA 229 DEB 4.2 19:47:04 10° NW 19:54:17 74° WSW 20:01:36 10° SSE
USA 229 4.2 19:47:10 10° NW 19:54:22 75° WSW 20:01:41 10° SSE
Cosmos 841 Rocket 3.8 19:53:13 10° SSW 19:58:21 74° WNW 20:03:30 10° NNE
NOSS 3-1 (A) 4.4 19:51:20 10° NNW 19:58:50 49° NE 20:06:59 10° SE
CZ-4 R/B 3.9 19:55:42 10° SSW 19:59:16 28° W 20:02:52 10° NW
H-2A R/B 3.9 19:56:44 10° SE 19:59:43 23° ENE 20:02:42 10° NNE
Cosmos 1544 3.9 19:56:44 10° SSE 19:59:52 29° E 20:03:02 10° NNE
SJ-6B 4.0 19:58:14 10° ESE 20:01:22 22° ENE 20:04:28 10° NNE
Cosmos 2150 Rocket 4.2 19:58:48 10° NNW 20:04:11 81° WSW 20:09:36 10° SSE
BREEZE-M (TANK) 4.3 19:49:52 10° NW 20:05:44 57° NNE 20:09:26 13° ESE
Cosmos 1953 4.0 20:04:14 10° ESE 20:06:20 14° E 20:08:27 10° NE
NOSS 3-1 (C) 4.1 19:58:35 10° NNW 20:06:23 71° ENE 20:14:54 10° SE
Cosmos 540 Rocket 3.4 20:02:27 10° S 20:07:28 63° ESE 20:12:30 10° NNE
USA 81 4.0 20:03:20 10° N 20:08:38 77° E 20:13:53 10° S
Cosmos 1937 Rocket 4.1 20:03:48 10° NNW 20:09:02 63° WSW 20:14:11 10° S
COSMO-SKYMED 1 4.2 20:05:11 10° N 20:09:13 39° WNW 20:13:15 10° SW
SL-27 R/B 3.2 20:10:01 10° SSE 20:13:12 31° E 20:16:28 10° NE
Cosmos 1758 Rocket 4.5 20:09:17 10° NNW 20:13:40 54° W 20:18:02 10° S
Cosmos 1378 3.6 20:11:41 10° NNW 20:15:26 66° W 20:19:08 10° S
COSMOS 2406 3.4 20:14:00 10° SSW 20:19:41 77° WNW 20:25:26 10° NNE
HJ-1C 4.1 20:19:34 15° SE 20:21:54 32° ENE 20:24:57 10° N
Cosmos 1707 3.9 20:19:20 10° NNW 20:23:06 46° W 20:26:51 10° SSW
SJ 16-02 2.5 20:20:13 10° NNE 20:23:45 23° ENE 20:24:56 21° E
Meteor 1-22 Rocket 4.2 20:18:11 10° S 20:23:54 85° E 20:29:25 10° N
In-Cosmos 22 4.4 20:18:36 10° N 20:24:13 54° E 20:29:49 10° SSE
Cosmos 1766 3.2 20:22:30 10° S 20:26:26 89° WNW 20:30:20 10° N
Cosmos 1356 Rocket 3.4 20:22:36 10° N 20:26:56 88° E 20:31:13 10° S
OAO 3 Copernicus 4.3 20:22:59 10° W 20:28:04 80° N 20:31:15 23° E
Cosmos 1833 Rocket 4.4 20:26:39 10° SE 20:27:34 13° SE 20:27:34 13° SE
Meteor 2-5 Rocket 4.3 20:27:30 10° NNW 20:33:12 61° W 20:38:46 10° S
FengYun 1-2 T 4.2 20:31:59 10° SSE 20:37:34 77° ENE 20:43:08 10° N
ALOS 3.1 20:33:09 10° S 20:37:41 53° W 20:42:16 10° NNW
ISS -2.2 20:34:49 10° WSW 20:37:49 33° NW 20:40:35 12° NNE
Cosmos 2074 Rocket 4.3 20:32:13 10° SSW 20:38:23 71° W 20:44:35 10° N
Cosmos 2154 Rocket 4.0 20:32:46 10° S 20:38:49 57° E 20:44:56 10° NNE
BREEZE-M DEB (TANK) 4.4 20:28:56 10° WSW 20:44:30 62° NW 20:48:26 15° NE
Cosmos 1758 3.2 20:47:46 10° S 20:51:45 67° E 20:55:43 10° NNE
Spot 2 Rocket 4.0 20:50:59 35° E 20:51:47 37° ENE 20:56:23 10° N
Cosmos 1812 Rocket 3.7 20:49:05 10° S 20:53:32 78° W 20:58:01 10° N
Cosmos 2341 Rocket 4.0 20:48:06 10° SSE 20:54:03 53° E 21:00:04 10° NNE
FREGAT/IRIS 4.3 20:51:56 10° SSW 20:54:43 34° W 20:57:31 10° NNW
Cosmos 2082 Rocket 3.5 20:51:20 10° SSE 20:53:28 21° SSE 20:53:28 21° SSE
Cosmos 1805 3.6 20:52:49 10° SSW 20:56:41 65° W 21:00:33 10° N
Meteor 2-8 Rocket 4.4 20:51:55 10° N 20:58:03 87° W 21:04:08 10° S
USA 234 4.1 20:52:32 10° SSE 20:58:45 46° SW 21:05:01 10° NW
ATLAS 5 CENTAUR R/B 2.5 20:54:48 10° S 20:57:40 32° SSE 20:57:40 32° SSE
Resurs 01 Rocket 1.6 21:01:56 54° E 21:02:09 55° ENE 21:06:28 10° N
CZ-2D R/B 3.0 21:04:04 77° E 21:04:09 77° ENE 21:07:58 10° N
GP-B 2.9 21:01:50 10° N 21:06:17 83° E 21:08:55 24° S
ATLAS CENTAUR R/B 3.2 20:58:02 10° NW 21:08:23 61° WSW 21:10:26 31° S
Nadezhda 3 Rocket 3.9 21:06:22 10° N 21:12:40 84° E 21:17:42 16° S
Cosmos 372 Rocket 4.3 21:13:22 10° NNW 21:18:34 64° WSW 21:21:22 27° S
Yuri Rocket 3.9 21:16:22 10° WSW 21:20:14 37° SSW 21:20:14 37° SSW
Cosmos 2285 Rocket 3.9 21:14:39 10° S 21:21:03 79° ESE 21:27:31 10° NNE
Cosmos 1809 Rocket 4.3 21:16:05 10° S 21:22:09 66° E 21:28:12 10° NNE
Cosmos 1125 Rocket 4.3 21:18:34 10° NNW 21:23:41 49° WSW 21:27:19 19° S
Envisat 2.8 21:24:15 77° ENE 21:24:15 77° ENE 21:29:20 10° N
Cosmos 1697 Rocket 4.3 21:20:19 10° N 21:22:57 20° NNE 21:22:57 20° NNE
Cosmos 1295 Rocket 4.3 21:19:12 10° S 21:25:18 85° E 21:31:24 10° N
Cosmos 1980 Rocket 4.4 21:23:56 10° NNE 21:24:38 12° NNE 21:24:38 12° NNE
OAO 3 Rocket 4.1 21:25:43 10° SW 21:29:00 38° SSW 21:29:00 38° SSW
Gbstr 26 Del rocket 3.4 21:26:29 10° SW 21:31:04 79° S 21:31:04 79° S
SL-8 Rocket 3.8 21:38:36 73° NE 21:38:36 73° NE 21:44:18 10° N
ATLAS 2AS CENTAUR R/B 3.3 21:33:11 10° NNW 21:40:36 44° NE 21:40:36 44° NE
Cosmos 1953 4.1 21:38:48 10° SW 21:42:24 31° W 21:46:03 10° NNW
NOSS 3-3 (A) 4.0 21:49:39 10° SW 21:55:39 73° WNW 21:55:46 73° NW
NOSS 3-3 (C) 4.0 21:49:45 10° SW 21:55:39 74° WNW 21:55:39 74° WNW
SJ 16-02 3.5 21:58:43 10° NW 22:02:00 23° W 22:02:00 23° W
Milstar 3 Cent rocket 4.3 22:17:59 10° WSW 22:19:07 17° WSW 22:19:07 17° WSW
Centaur D AC-29 3.8 22:21:45 10° WSW 22:24:06 18° WSW 22:24:06 18° WSW
FALCON 9 R/B 4.2 22:34:50 10° W 22:36:10 23° W 22:36:10 23° W
